TimeEDT,TemperatureF,Dew PointF,Humidity,Sea Level PressureIn,VisibilityMPH,Wind Direction,Wind SpeedMPH,Gust SpeedMPH,PrecipitationIn,Events,Conditions,WindDirDegrees,DateUTC
12:54 AM,63.0,57.0,81,30.06,10.0,North,4.6,-,N/A,,Partly Cloudy,350,2013-07-12 04:54:00
1:54 AM,62.1,57.9,86,30.06,10.0,North,3.5,-,N/A,,Clear,360,2013-07-12 05:54:00
2:54 AM,62.1,57.9,86,30.07,10.0,NNW,3.5,-,N/A,,Partly Cloudy,340,2013-07-12 06:54:00
3:54 AM,62.1,57.9,86,30.08,10.0,Calm,Calm,-,N/A,,Scattered Clouds,0,2013-07-12 07:54:00
4:54 AM,62.1,57.9,86,30.09,10.0,ENE,3.5,-,N/A,,Partly Cloudy,60,2013-07-12 08:54:00
5:54 AM,59.0,57.0,93,30.12,9.0,North,3.5,-,N/A,,Partly Cloudy,10,2013-07-12 09:54:00
6:54 AM,59.0,57.0,93,30.13,7.0,Calm,Calm,-,N/A,,Clear,0,2013-07-12 10:54:00
7:54 AM,64.9,60.1,84,30.13,7.0,Calm,Calm,-,N/A,,Clear,0,2013-07-12 11:54:00
8:54 AM,68.0,60.1,76,30.14,10.0,ENE,4.6,-,N/A,,Clear,60,2013-07-12 12:54:00
9:54 AM,72.0,61.0,68,30.15,10.0,East,4.6,-,N/A,,Clear,80,2013-07-12 13:54:00
10:54 AM,73.9,60.1,62,30.14,10.0,Variable,5.8,-,N/A,,Partly Cloudy,0,2013-07-12 14:54:00
11:54 AM,75.9,60.1,58,30.14,10.0,NNE,8.1,-,N/A,,Scattered Clouds,30,2013-07-12 15:54:00
12:54 PM,75.9,60.1,58,30.13,10.0,ENE,9.2,-,N/A,,Scattered Clouds,70,2013-07-12 16:54:00
1:54 PM,77.0,57.9,52,30.12,10.0,ENE,11.5,-,N/A,,Partly Cloudy,60,2013-07-12 17:54:00
2:54 PM,78.1,57.0,48,30.13,10.0,East,10.4,-,N/A,,Partly Cloudy,90,2013-07-12 18:54:00
3:54 PM,79.0,60.1,52,30.12,10.0,East,6.9,-,N/A,,Scattered Clouds,80,2013-07-12 19:54:00
4:54 PM,79.0,60.1,52,30.11,10.0,ENE,9.2,-,N/A,,Scattered Clouds,70,2013-07-12 20:54:00
5:54 PM,75.9,59.0,56,30.11,10.0,ENE,10.4,-,N/A,,Scattered Clouds,70,2013-07-12 21:54:00
6:54 PM,78.1,59.0,52,30.11,10.0,ENE,8.1,-,N/A,,Scattered Clouds,60,2013-07-12 22:54:00
7:54 PM,75.9,57.9,54,30.09,10.0,NE,10.4,-,N/A,,Partly Cloudy,50,2013-07-12 23:54:00
8:54 PM,72.0,57.0,59,30.12,10.0,ENE,9.2,-,N/A,,Clear,60,2013-07-13 00:54:00
9:54 PM,66.9,59.0,76,30.12,10.0,East,4.6,-,N/A,,Clear,80,2013-07-13 01:54:00
10:54 PM,66.0,57.9,75,30.12,10.0,ENE,4.6,-,N/A,,Clear,70,2013-07-13 02:54:00
11:54 PM,64.9,57.9,78,30.12,10.0,NE,6.9,-,N/A,,Clear,50,2013-07-13 03:54:00